[[{"header":{"parameterUnit":"m.s-1","parameterCategory":1,"la1":30.2992,"la2":30.254,"lo1":-89.0895,"lo2":-89.0443,"dy":0.0025,"dx":0.0025,"nx":19,"ny":19,"refTime":"2026-03-30T09:00:00:Z","depth":0,"parameterNumber":2,"parameterNumberName":"U-component_of_WINDS"},"data":[0,0,0,-3.7004,-3.7007,-3.7116,-3.7116,-3.7261,-3.7263,0,0,0,0,0,0,0,0,0,0,0,-3.6975,-3.6976,-3.7004,-3.7007,-3.7116,-3.7116,-3.7261,-3.7263,0,0,0,0,0,0,0,0,0,0,0,-3.6974,-3.6976,-3.6977,-3.7007,-3.7116,-3.7116,-3.7261,-3.7176,0,0,0,0,0,0,0,0,0,0,-3.7069,-3.7045,-3.6975,-3.6977,-3.7008,-3.7116,-3.7117,-3.7172,-3.7182,-3.7214,0,-3.7243,0,-3.7255,-3.7273,-3.7273,0,0,0,-3.7004,-3.7037,-3.7064,-3.6977,-3.7009,-3.7116,-3.7066,-3.7177,-3.7188,-3.7226,-3.7245,-3.7251,-3.7258,-3.7274,-3.7274,-3.7468,-3.7469,0,0,-3.6998,-3.6996,-3.7057,-3.7071,-3.7055,-3.7063,-3.7069,-3.7184,-3.7204,-3.7246,-3.7254,-3.726,-3.7275,-3.7276,-3.7467,-3.7468,0,0,0,-3.6983,-3.6992,-3.7016,-3.7065,-3.7085,-3.7066,-3.7074,-3.7199,-3.7207,-3.7256,-3.7262,-3.7275,-3.7277,-3.7466,-3.7468,-3.7514,0,0,0,-3.6979,-3.6983,-3.7013,-3.7013,-3.7083,-3.7144,-3.7087,-3.7199,-3.7212,-3.7261,-3.7275,-3.7279,-3.7465,-3.7467,-3.7511,-3.7536,0,0,0,-3.6967,-3.6981,-3.6998,-3.7013,-3.706,-3.7142,-3.7156,-3.7202,-3.7216,-3.7273,-3.7279,-3.7464,-3.7466,-3.7507,-3.7531,-3.7585,0,0,0,-3.6953,-3.7039,-3.6999,-3.7098,-3.7059,-3.7171,-3.7155,-3.7239,-3.7293,-3.7276,-3.7465,-3.7467,-3.7506,-3.7527,-3.7581,-3.7628,-3.7649,0,0,-3.706,-3.7052,-3.711,-3.7078,-3.7196,-3.7154,-3.7279,-3.7331,-3.7339,-3.7425,-3.7429,-3.7512,-3.753,-3.7584,-3.7766,-3.7782,0,0,0,-3.7143,-3.7185,-3.7217,-3.7269,-3.7311,-3.7349,-3.7382,-3.7401,-3.7474,-3.7383,-3.7547,-3.7559,-3.759,-3.7613,-3.7626,-3.7653,-3.7478,-3.7478,-3.7478,-3.7291,-3.7296,-3.7392,-3.7411,-3.7462,-3.7495,-3.7536,-3.7568,-3.7559,-3.7598,-3.7622,-3.7732,-3.7759,-3.7769,-3.7796,-3.765,-3.765,-3.765,-3.7651,-3.7447,-3.7505,-3.7492,-3.758,-3.7585,-3.7659,-3.7696,-3.7687,-3.7756,-3.7714,-3.7742,-3.7694,-3.7786,-3.781,-3.7654,-3.7654,-3.7653,-3.7653,-3.7653,-3.7541,-3.757,-3.7593,-3.7668,-3.7726,-3.7742,-3.7809,-3.7812,-3.7816,-3.7844,-3.7869,-3.7868,-3.7866,-3.7856,-3.7857,-3.7857,-3.7857,-3.7857,-3.7858,-3.763,-3.7654,-3.771,-3.7762,-3.7795,-3.784,-3.7876,-3.7909,-3.7946,-3.7942,-3.7943,-3.7928,-3.7795,-3.776,-3.7864,-3.7863,-3.7862,-3.7861,-3.7861,-3.7781,-3.7748,-3.7834,-3.7868,-3.7929,-3.7985,-3.7989,-3.8056,-3.8084,-3.8117,-3.8098,-3.7999,-3.7991,-3.798,-3.795,-3.8097,-3.8097,-3.8097,-3.8098,-3.786,-3.7856,-3.7945,-3.7998,-3.8051,-3.8063,-3.816,-3.8189,-3.8213,-3.8231,-3.8211,-3.8173,-3.8162,-3.816,-3.8145,-3.8118,-3.8304,-3.8304,-3.8304,-3.7952,-3.7954,-3.8035,-3.8059,-3.8107,-3.8149,-3.824,-3.8301,-3.8322,-3.8313,-3.8244,-3.8235,-3.8175,-3.8155,-3.8141,-3.8118,-3.8068,0,0]},{"header":{"parameterUnit":"m.s-1","parameterCategory":1,"la1":30.2992,"la2":30.254,"lo1":-89.0895,"lo2":-89.0443,"dy":0.0025,"dx":0.0025,"nx":19,"ny":19,"refTime":"2026-03-30T09:00:00:Z","depth":0,"parameterNumber":3,"parameterNumberName":"V-component_of_WINDS"},"data":[0,0,0,3.0232,3.0233,3.028,3.028,3.0346,3.0347,0,0,0,0,0,0,0,0,0,0,0,3.0223,3.0224,3.0232,3.0233,3.028,3.028,3.0346,3.0347,0,0,0,0,0,0,0,0,0,0,0,3.0223,3.0223,3.0224,3.0234,3.028,3.028,3.0346,3.0308,0,0,0,0,0,0,0,0,0,0,3.0261,3.0258,3.0223,3.0224,3.0234,3.028,3.028,3.0306,3.031,3.0327,0,3.0345,0,3.0347,3.0351,3.0352,0,0,0,3.0229,3.0254,3.0263,3.0224,3.0234,3.028,3.0258,3.0308,3.0313,3.0333,3.0346,3.0348,3.0348,3.0352,3.0352,3.0469,3.047,0,0,3.0227,3.0233,3.026,3.0266,3.0261,3.0257,3.026,3.0311,3.0325,3.0346,3.035,3.0349,3.0352,3.0353,3.0468,3.0469,0,0,0,3.0222,3.0232,3.0239,3.0264,3.0272,3.0258,3.0261,3.0323,3.0325,3.035,3.035,3.0353,3.0354,3.0467,3.0468,3.0512,0,0,0,3.022,3.0229,3.0238,3.0243,3.0271,3.0298,3.0272,3.0321,3.0327,3.035,3.0353,3.0354,3.0467,3.0468,3.0509,3.0532,0,0,0,3.0218,3.0229,3.0237,3.0243,3.0264,3.0297,3.0302,3.0322,3.0327,3.0352,3.0355,3.0466,3.0468,3.0507,3.0527,3.0565,0,0,0,3.0217,3.0274,3.0238,3.0301,3.0263,3.0324,3.0302,3.0346,3.0373,3.0353,3.0467,3.0468,3.0506,3.0525,3.0563,3.0599,3.0615,0,0,3.0292,3.0283,3.032,3.0289,3.0359,3.0317,3.0392,3.0409,3.0404,3.0447,3.045,3.051,3.0527,3.0565,3.07,3.0712,0,0,0,3.0346,3.0373,3.039,3.0416,3.0432,3.0447,3.0453,3.0459,3.0496,3.0428,3.0534,3.0543,3.0565,3.0582,3.0593,3.0612,3.0476,3.0476,3.0476,3.0461,3.0454,3.0515,3.0514,3.054,3.0545,3.0566,3.0575,3.0558,3.0583,3.0596,3.0679,3.07,3.0707,3.0727,3.0614,3.0614,3.0615,3.0615,3.0571,3.0608,3.0587,3.0638,3.063,3.0672,3.0679,3.0667,3.0704,3.0668,3.0687,3.065,3.0722,3.0738,3.0618,3.0617,3.0617,3.0617,3.0616,3.0647,3.0663,3.0672,3.0711,3.0741,3.0737,3.0775,3.0765,3.0756,3.0775,3.0788,3.0787,3.0786,3.0782,3.0782,3.0782,3.0782,3.0783,3.0783,3.0722,3.073,3.0764,3.0787,3.0804,3.0824,3.0831,3.0846,3.0861,3.0851,3.0851,3.0832,3.073,3.0705,3.0787,3.0787,3.0786,3.0786,3.0785,3.0838,3.081,3.0863,3.088,3.0906,3.0938,3.0925,3.0958,3.0969,3.0989,3.0966,3.0892,3.0881,3.0873,3.0852,3.0967,3.0967,3.0967,3.0967,3.0902,3.0896,3.0949,3.0977,3.1003,3.0997,3.1056,3.1062,3.1064,3.107,3.1052,3.1023,3.1015,3.1009,3.0998,3.0978,3.1123,3.1123,3.1123,3.0973,3.0969,3.1023,3.1026,3.1046,3.1063,3.1119,3.1151,3.1146,3.1129,3.1075,3.1069,3.1022,3.1008,3.099,3.0972,3.0936,0,0]}]]